Starlink 35917

operational
NORAD ID: 66503 Int'l Des: 2025-263 Owner: SPXS Country: US Constellation: starlink
NOTLE

About Starlink 35917

Description loading...

Live Position

Loading 3D Globe...

Upcoming Passes

Altitude History

Altitude vs Time

uPlot chart will show altitude changes over time

Two-Line Element Set

1 66503U 25263U 26041.26898061 .00016816 00000-0 61913-3 0 9996
2 66503 43.0010 145.6945 0001214 271.3319 88.7394 15.27584212 14706
Epoch: Feb 10, 2026 • Age: 9 hours

Current Status

Altitude 491.8 km
Velocity 7.62 km/s
Sub-Earth Point -33.69°S, 82.98°E
Launch Date Nov 15, 2025
Age 0.2 years
Type internet

Technical Details

Classification Payload
Mass 575.00 kg
Dry Mass 530.00 kg
Total Mass 575.00 kg
Length 0.30 m
Diameter 4.10 m
Span 29.00 m
Shape Box + pan
Manufacturer SPXS
Bus Type Starlink V2MO
Phase Status In Orbit
Owner/State SPXS/US

Large Constellations

Loading constellations...